1496102400.52,2893,21.44,74150.5,3.95,-16.97,-16.97,0,*42
1496102401.73,2894,21.44,74146.8,3.95,-16.97,-16.93,0,*41
1496102402.94,2895,21.44,74144.5,3.95,-16.97,-16.93,0,*40
1496102404.18,2896,21.44,74144.0,3.95,-16.97,-17.17,0,*4E
1496102405.41,2897,21.44,74146.5,3.95,-16.97,-17.17,0,*4F
1496102406.68,2898,21.44,74146.5,3.95,-17.07,-17.17,0,*48
1496102407.89,2899,21.44,74146.3,3.93,-16.97,-17.17,0,*47
1496102409.13,2900,21.44,74148.0,3.95,-16.93,-17.11,0,*42
1496102410.34,2901,21.44,74144.8,3.93,-16.89,-17.03,0,*4D
1496102411.56,2902,21.44,74150.8,3.93,-16.69,-16.83,0,*49
1496102412.8,2903,21.44,74150.5,3.95,-16.65,-16.83,0,*42
1496102414.05,2904,21.44,74152.3,3.95,-16.79,-17.11,0,*42
1496102415.28,2905,21.44,74150.0,3.93,-17.03,-17.17,0,*4F
1496102416.5,2906,21.44,74148.0,3.93,-16.97,-17.11,0,*46
1496102417.74,2907,21.44,74150.8,3.93,-17.03,-17.11,0,*4B
1496102418.98,2908,21.44,74152.3,3.93,-17.03,-17.11,0,*44
1496102420.22,2909,21.44,74152.5,3.93,-17.03,-17.03,0,*46
1496102421.46,2910,21.44,74150.5,3.93,-17.03,-17.03,0,*4E
1496102422.66,2911,21.44,74152.5,3.93,-16.83,-16.83,0,*4F
1496102423.85,2912,21.44,74148.0,3.93,-16.83,-16.89,0,*46
1496102425.09,2913,21.44,74148.8,3.95,-16.41,-16.65,0,*4D
1496102426.33,2914,21.44,74150.8,3.95,-16.37,-16.65,0,*4B
1496102427.53,2915,21.44,74148.8,3.93,-16.45,-16.75,0,*48
1496102428.72,2916,21.44,74148.3,3.93,-16.41,-16.75,0,*4F
1496102429.99,2917,21.44,74150.0,3.95,-16.23,-16.65,0,*4D
1496102431.2,2918,21.44,74154.8,3.93,-16.27,-16.75,0,*41
1496102432.4,2919,21.44,74154.0,3.93,-16.41,-16.89,0,*43
1496102433.58,2920,21.44,74152.5,3.93,-16.45,-16.89,0,*4D
1496102434.77,2921,21.44,74154.8,3.93,-16.59,-16.83,0,*4B
1496102435.99,2922,21.44,74150.5,3.93,-16.45,-16.69,0,*41
1496102437.2,2923,21.44,74154.5,3.93,-16.45,-16.69,0,*40
1496102438.4,2924,21.44,74152.8,3.93,-16.55,-16.59,0,*45
1496102439.64,2925,21.44,74154.3,3.93,-16.69,-16.69,0,*48
1496102440.86,2926,21.44,74152.5,3.89,-16.75,-16.65,0,*41
1496102442.11,2927,21.44,74154.5,3.89,-16.65,-16.65,0,*41
1496102443.33,2928,21.44,74154.5,3.93,-16.75,-16.69,0,*48
1496102444.57,2929,21.44,74152.0,3.93,-16.69,-16.69,0,*44
1496102445.81,2930,21.44,74152.8,3.93,-16.69,-16.69,0,*4C
1496102447.0,2931,21.44,74154.8,3.93,-16.55,-16.55,0,*4D
1496102448.25,2932,21.44,74152.5,3.89,-16.65,-16.65,0,*45
1496102449.47,2933,21.44,74152.3,3.89,-16.59,-16.65,0,*4B
1496102450.71,2934,21.44,74152.3,3.89,-16.51,-16.51,0,*43
1496102451.9,2935,21.44,74150.3,3.89,-16.37,-16.45,0,*47
1496102453.09,2936,21.44,74154.8,3.89,-16.37,-16.45,0,*44
1496102454.28,2937,21.44,74150.8,3.93,-16.45,-16.41,0,*4F
1496102455.5,2938,21.44,74148.8,3.89,-16.51,-16.45,0,*4A
1496102456.74,2939,21.44,74152.3,3.89,-16.51,-16.51,0,*4E
1496102457.95,2940,21.44,74152.5,3.89,-16.51,-16.45,0,*45
1496102459.16,2941,21.44,74150.8,3.87,-16.45,-16.45,0,*4F
1496102460.42,2942,21.44,74148.3,3.87,-16.31,-16.23,0,*4F
1496102461.67,2943,21.44,74152.0,3.89,-16.23,-16.13,0,*40
1496102462.89,2944,21.44,74152.0,3.89,-16.37,-16.23,0,*41
1496102464.14,2945,21.44,74152.3,3.89,-16.17,-16.13,0,*41
1496102465.38,2946,21.44,74148.5,3.89,-16.23,-16.17,0,*41
1496102466.63,2947,21.44,74148.0,3.89,-16.23,-16.17,0,*40
1496102467.85,2948,21.44,74148.5,3.89,-16.23,-16.37,0,*4D
1496102469.04,2949,21.44,74148.3,3.89,-16.45,-16.45,0,*49
1496102470.26,2950,21.44,74150.8,3.89,-16.37,-16.23,0,*44
1496102471.53,2951,21.44,74148.5,3.87,-16.23,-16.17,0,*49
1496102472.77,2952,21.44,74148.3,3.89,-16.31,-16.13,0,*43
1496102474.01,2953,21.44,74150.3,3.89,-16.31,-16.17,0,*46
1496102475.26,2954,21.44,74150.8,3.89,-16.31,-16.17,0,*41
1496102476.52,2955,21.44,74156.0,3.87,-16.31,-16.13,0,*4A
1496102477.79,2956,21.44,74152.5,3.87,-16.31,-16.17,0,*4D
1496102479.06,2957,21.44,74152.0,3.87,-16.13,-15.89,0,*48
1496102480.3,2958,21.44,74152.0,3.87,-16.03,-15.85,0,*4A
1496102481.57,2959,21.44,74150.5,3.87,-16.23,-16.17,0,*41
1496102482.83,2960,21.44,74148.8,3.87,-16.23,-16.13,0,*4F
1496102484.08,2961,21.44,74150.0,3.89,-16.23,-16.13,0,*40
1496102485.29,2962,21.44,74148.5,3.89,-16.23,-15.99,0,*42
1496102486.51,2963,21.44,74150.0,3.89,-16.23,-16.03,0,*43
1496102487.76,2964,21.44,74146.0,3.89,-16.23,-16.13,0,*45
1496102488.98,2965,21.44,74150.0,3.89,-16.23,-15.99,0,*45
1496102490.22,2966,21.44,74148.3,3.87,-16.17,-15.99,0,*4F
1496102491.46,2967,21.44,74148.8,3.87,-15.85,-15.63,0,*43
1496102492.65,2968,21.44,74148.0,3.89,-15.99,-15.63,0,*4F
1496102493.87,2969,21.44,74152.0,3.87,-16.03,-15.75,0,*47
1496102495.11,2970,21.44,74148.3,3.87,-16.13,-15.75,0,*4E
1496102496.31,2971,21.44,74150.8,3.89,-16.03,-15.75,0,*40
1496102497.55,2972,21.44,74150.5,3.87,-15.85,-15.63,0,*47
1496102498.77,2973,21.44,74152.3,3.89,-15.71,-15.57,0,*44
1496102500.0,2974,21.44,74150.0,3.89,-16.03,-15.85,0,*4A
1496102501.19,2975,21.44,74148.3,3.89,-16.03,-15.71,0,*40
1496102502.4,2976,21.44,74148.8,3.87,-15.99,-15.75,0,*49
1496102503.68,2977,21.44,74148.3,3.87,-16.13,-15.85,0,*46
1496102504.94,2978,21.44,74146.5,3.87,-16.17,-15.89,0,*41
1496102506.19,2979,21.44,74150.3,3.87,-16.13,-15.75,0,*47
1496102507.42,2980,21.44,74148.5,3.89,-16.13,-15.75,0,*4F
1496102508.64,2981,21.44,74152.3,3.87,-16.03,-15.75,0,*41
1496102509.86,2982,21.44,74148.3,3.87,-16.03,-15.75,0,*42
1496102511.07,2983,21.44,74152.8,3.87,-15.99,-15.71,0,*47
1496102512.28,2984,21.44,74150.3,3.87,-15.99,-15.63,0,*43
1496102513.52,2985,21.44,74154.0,3.87,-15.89,-15.63,0,*43
1496102514.74,2986,21.44,74148.5,3.87,-15.71,-15.49,0,*4F
1496102515.99,2987,21.44,74154.3,3.87,-15.85,-15.49,0,*45
1496102517.21,2988,21.44,74148.5,3.87,-15.63,-15.29,0,*44
1496102518.46,2989,21.44,74148.5,3.87,-15.75,-15.43,0,*4E
1496102519.71,2990,21.44,74148.8,3.87,-15.75,-15.43,0,*46
1496102520.98,2991,21.44,74150.3,3.87,-15.85,-15.43,0,*48
1496102522.21,2992,21.44,74154.0,3.89,-15.75,-15.43,0,*4A
1496102523.45,2993,21.44,74150.8,3.87,-15.71,-15.35,0,*40
1496102524.71,2994,21.44,74152.0,3.87,-15.85,-15.35,0,*4C
1496102525.98,2995,21.44,74152.5,3.87,-15.85,-15.35,0,*4D
1496102527.18,2996,21.44,74150.8,3.85,-15.53,-15.15,0,*45
1496102528.42,2997,21.44,74150.0,3.87,-15.43,-15.15,0,*47
1496102529.64,2998,21.44,74144.5,3.87,-15.63,-15.29,0,*45
1496102530.87,2999,21.44,74150.0,3.89,-15.89,-15.49,0,*48
1496102532.14,3000,21.44,74146.0,3.87,-15.89,-15.57,0,*41
1496102533.33,3001,21.44,74146.5,3.85,-16.03,-15.63,0,*44
1496102534.56,3002,21.44,74146.3,3.87,-15.75,-15.29,0,*49
1496102535.77,3003,21.44,74146.5,3.87,-15.99,-15.49,0,*4C
1496102536.97,3004,21.44,74148.0,3.85,-16.03,-15.49,0,*49
1496102538.2,3005,21.44,74144.5,3.85,-15.81,-15.29,0,*47
1496102539.43,3006,21.44,74146.8,3.87,-15.99,-15.43,0,*43
1496102540.65,3007,21.44,74148.0,3.87,-15.99,-15.49,0,*48
1496102541.92,3008,21.44,74150.0,3.87,-15.85,-15.35,0,*41
1496102543.17,3009,21.44,74150.0,3.87,-15.85,-15.29,0,*4D
1496102544.38,3010,21.44,74146.8,3.85,-15.63,-15.01,0,*45
1496102545.6,3011,21.44,74144.8,3.85,-15.67,-14.93,0,*4A
1496102546.82,3012,21.44,74146.0,3.85,-15.39,-14.89,0,*49
1496102548.04,3013,21.44,74144.3,3.85,-15.39,-14.89,0,*48
1496102549.23,3014,21.44,74146.8,3.85,-15.49,-14.89,0,*48
1496102550.43,3015,21.44,74146.5,3.85,-15.53,-14.89,0,*42
1496102551.63,3016,21.44,74146.0,3.85,-15.49,-14.89,0,*4A
1496102552.89,3017,21.44,74144.0,3.87,-15.57,-14.83,0,*4C
1496102554.09,3018,21.44,74146.5,3.85,-15.63,-14.89,0,*4C
1496102555.35,3019,21.44,74150.8,3.87,-15.57,-14.83,0,*42
1496102556.57,3020,21.44,74150.0,3.85,-15.53,-14.79,0,*4B
1496102557.79,3021,21.44,74146.8,3.85,-15.63,-14.79,0,*49
1496102559.01,3022,21.44,74148.0,3.85,-15.39,-14.65,0,*48
1496102560.23,3023,21.44,74150.8,3.85,-15.39,-14.61,0,*4D
1496102561.47,3024,21.44,74148.3,3.85,-15.39,-14.51,0,*49
1496102562.68,3025,21.44,74148.8,3.85,-15.53,-14.75,0,*42
1496102563.9,3026,21.44,74148.3,3.85,-15.39,-14.61,0,*48
1496102565.09,3027,21.44,74148.3,3.85,-15.49,-14.61,0,*4E
1496102566.31,3028,21.44,74150.8,3.85,-15.49,-14.51,0,*42
1496102567.57,3029,21.44,74148.3,3.83,-15.39,-14.43,0,*41
1496102568.81,3030,21.44,74150.3,3.83,-15.39,-14.33,0,*4E
1496102570.02,3031,21.44,74154.0,3.85,-15.39,-14.33,0,*49
1496102571.22,3032,21.44,74148.3,3.85,-15.29,-14.15,0,*4F
1496102572.43,3033,21.44,74150.3,3.85,-15.21,-14.15,0,*46
1496102573.67,3034,21.38,74150.8,3.83,-15.35,-14.19,0,*4E
1496102574.89,3035,21.44,74152.5,3.83,-15.29,-14.15,0,*4E
1496102576.08,3036,21.44,74154.3,3.85,-15.29,-14.15,0,*4B
1496102577.34,3037,21.44,74152.5,3.83,-15.21,-14.01,0,*41
1496102578.58,3038,21.44,74152.0,3.85,-15.21,-14.01,0,*48
1496102579.79,3039,21.44,74148.5,3.83,-15.29,-13.93,0,*4B
1496102581.04,3040,21.44,74150.3,3.83,-15.21,-13.79,0,*49
1496102582.23,3041,21.44,74150.8,3.85,-15.15,-13.73,0,*43
1496102583.44,3042,21.44,74150.8,3.85,-15.07,-13.61,0,*40
1496102584.67,3043,21.38,74150.8,3.83,-15.21,-13.73,0,*40
1496102585.91,3044,21.44,74150.3,3.83,-15.07,-13.61,0,*40
1496102587.11,3045,21.44,74152.5,3.83,-15.07,-13.47,0,*45
1496102588.35,3046,21.44,74148.8,3.85,-15.01,-13.33,0,*45
1496102589.58,3047,21.44,74150.8,3.85,-15.01,-13.29,0,*4F
1496102590.77,3048,21.44,74150.8,3.85,-14.89,-13.15,0,*4E
1496102591.98,3049,21.44,74152.0,3.85,-14.79,-13.07,0,*43
1496102593.19,3050,21.38,74150.8,3.85,-14.79,-13.15,0,*48
1496102594.38,3051,21.44,74150.8,3.85,-14.89,-13.07,0,*45
1496102595.59,3052,21.44,74150.3,3.85,-14.89,-13.01,0,*40
1496102596.85,3053,21.44,74152.5,3.83,-14.75,-12.79,0,*4A
1496102598.12,3054,21.44,74150.3,3.83,-14.75,-12.75,0,*41
1496102599.36,3055,21.38,74150.3,3.83,-14.61,-12.65,0,*44
1496102600.6,3056,21.44,74152.8,3.83,-14.65,-12.75,0,*42
1496102601.86,3057,21.44,74154.8,3.83,-14.75,-12.57,0,*42
1496102603.07,3058,21.44,74152.3,3.85,-14.75,-12.47,0,*4A
1496102604.33,3059,21.44,74150.0,3.83,-14.47,-12.29,0,*44
1496102605.55,3060,21.44,74152.0,3.85,-14.29,-11.93,0,*42
1496102606.79,3061,21.38,74148.5,3.85,-14.51,-12.15,0,*41
1496102608.04,3062,21.44,74148.3,3.85,-14.51,-12.15,0,*42
1496102609.31,3063,21.44,74152.0,3.83,-14.47,-12.07,0,*41
1496102610.55,3064,21.44,74154.3,3.83,-14.29,-11.73,0,*4E
1496102611.8,3065,21.44,74152.5,3.85,-14.05,-11.51,0,*47
1496102612.99,3066,21.44,74154.8,3.85,-13.93,-11.45,0,*49
1496102614.24,3067,21.44,74154.3,3.85,-14.01,-11.33,0,*45
1496102615.47,3068,21.44,74148.0,3.83,-13.93,-11.33,0,*40
1496102616.69,3069,21.44,74148.0,3.83,-14.15,-11.45,0,*49
1496102617.91,3070,21.44,74154.5,3.83,-14.29,-11.45,0,*4E
1496102619.13,3071,21.38,74150.3,3.85,-14.05,-11.11,0,*46
1496102620.36,3072,21.38,74148.8,3.85,-13.51,-10.63,0,*47
1496102621.58,3073,21.44,74152.8,3.85,-13.65,-10.63,0,*41
1496102622.8,3074,21.44,74148.5,3.85,-13.73,-10.75,0,*46
1496102624.02,3075,21.38,74150.3,3.85,-13.73,-10.75,0,*47
1496102625.25,3076,21.44,74150.3,3.85,-13.93,-10.67,0,*49
1496102626.47,3077,21.38,74148.8,3.85,-13.93,-10.75,0,*4B
1496102627.71,3078,21.44,74152.8,3.85,-13.87,-10.67,0,*42
1496102628.96,3079,21.38,74152.0,3.85,-13.79,-10.63,0,*46
1496102630.21,3080,21.44,74152.5,3.85,-13.87,-10.63,0,*41
1496102631.43,3081,21.44,74150.8,3.85,-13.79,-10.35,0,*42
1496102632.65,3082,21.38,74148.5,3.85,-13.79,-10.35,0,*41
1496102633.85,3083,21.44,74152.8,3.85,-13.65,-10.15,0,*4F
1496102635.04,3084,21.44,74150.3,3.85,-13.51,-9.97,0,*7D
1496102636.27,3085,21.44,74150.3,3.83,-13.51,-9.93,0,*7E
1496102637.46,3086,21.38,74150.8,3.85,-13.51,-9.93,0,*7B
1496102638.68,3087,21.44,74152.8,3.85,-13.51,-9.83,0,*7B
1496102639.88,3088,21.38,74150.3,3.85,-13.51,-9.71,0,*79
1496102641.07,3089,21.44,74152.5,3.85,-13.43,-9.67,0,*7C
1496102642.28,3090,21.44,74152.8,3.85,-13.47,-9.53,0,*77
1496102643.46,3091,21.44,74152.5,3.85,-13.19,-9.27,0,*7E
1496102644.68,3092,21.38,74150.8,3.85,-13.29,-9.27,0,*7E
1496102645.89,3093,21.38,74150.8,3.85,-13.01,-8.97,0,*7F
1496102647.1,3094,21.38,74148.8,3.83,-13.07,-8.89,0,*77
1496102648.31,3095,21.44,74150.3,3.85,-13.01,-8.75,0,*75
1496102649.49,3096,21.44,74152.0,3.85,-12.89,-8.63,0,*70
1496102650.67,3097,21.44,74148.8,3.85,-12.89,-8.63,0,*71
1496102651.88,3098,21.38,74148.5,3.85,-12.89,-8.51,0,*7F
1496102653.09,3099,21.38,74150.0,3.83,-12.89,-8.37,0,*78
1496102654.3,3100,21.38,74150.3,3.85,-12.75,-8.25,0,*7F
1496102655.52,3101,21.38,74150.8,3.85,-12.75,-8.21,0,*7A
1496102656.75,3102,21.44,74152.0,3.83,-12.75,-8.17,0,*7A
1496102658.02,3103,21.44,74152.0,3.83,-12.75,-8.07,0,*7A
1496102659.25,3104,21.38,74148.8,3.85,-12.61,-7.95,0,*7A
1496102660.49,3105,21.38,74154.3,3.83,-12.47,-7.69,0,*7A
1496102661.7,3106,21.44,74154.0,3.85,-12.47,-7.69,0,*7F
1496102662.93,3107,21.44,74148.5,3.85,-12.15,-7.35,0,*70
1496102664.14,3108,21.44,74148.3,3.85,-12.03,-7.27,0,*7B
1496102665.38,3109,21.38,74148.3,3.85,-12.15,-7.27,0,*7D
1496102666.6,3110,21.38,74148.0,3.85,-12.21,-7.27,0,*72
1496102667.82,3111,21.38,74152.0,3.85,-12.15,-7.11,0,*71
1496102669.06,3112,21.38,74152.5,3.87,-12.11,-7.19,0,*7C
1496102670.29,3113,21.44,74152.0,3.85,-12.07,-6.97,0,*7F
1496102671.48,3114,21.44,74150.0,3.85,-12.03,-6.85,0,*7F
1496102672.66,3115,21.44,74152.0,3.85,-12.03,-6.59,0,*7F
1496102673.9,3116,21.38,74152.3,3.83,-11.89,-6.59,0,*7B
1496102675.11,3117,21.38,74154.8,3.85,-11.77,-6.51,0,*75
1496102676.35,3118,21.38,74152.0,3.87,-11.85,-6.43,0,*76
1496102677.61,3119,21.38,74156.3,3.87,-11.67,-6.27,0,*79
1496102678.87,3120,21.44,74152.8,3.87,-11.33,-5.93,0,*7E
1496102680.14,3121,21.38,74152.8,3.87,-11.33,-5.89,0,*74
1496102681.37,3122,21.38,74152.8,3.87,-11.15,-5.77,0,*72
1496102682.59,3123,21.38,74152.3,3.89,-11.15,-5.61,0,*7A
1496102683.78,3124,21.38,74154.0,3.89,-11.15,-5.47,0,*79
1496102685.01,3125,21.38,74154.5,3.87,-11.07,-5.47,0,*75
1496102686.23,3126,21.38,74152.3,3.89,-11.07,-5.47,0,*78
1496102687.42,3127,21.44,74154.3,3.89,-11.15,-5.47,0,*7A
1496102688.61,3128,21.38,74150.8,3.89,-11.01,-5.35,0,*75
1496102689.8,3129,21.38,74146.0,3.93,-11.15,-5.47,0,*7F
1496102691.0,3130,21.44,74150.5,3.93,-11.15,-5.65,0,*77
1496102692.25,3131,21.38,74142.5,3.89,-11.29,-5.61,0,*76
1496102693.44,3132,21.38,74140.0,3.93,-11.23,-5.55,0,*73
1496102694.66,3133,21.38,74146.5,3.93,-11.11,-5.11,0,*73
1496102695.87,3134,21.44,74150.0,3.93,-11.01,-5.19,0,*7D
1496102697.08,3135,21.38,74148.5,3.93,-11.11,-5.19,0,*7D
1496102698.3,3136,21.38,74148.0,3.93,-11.01,-5.11,0,*77
1496102699.52,3137,21.44,74148.3,3.93,-10.97,-5.11,0,*78
1496102700.72,3138,21.38,74146.0,3.93,-10.85,-4.93,0,*7F
1496102701.93,3139,21.38,74144.8,3.93,-10.85,-4.93,0,*7E
1496102703.16,3140,21.38,74144.5,3.95,-10.85,-4.89,0,*7D
1496102704.4,3141,21.38,74150.8,3.89,-10.79,-4.89,0,*72
1496102705.61,3142,21.38,74148.3,3.93,-10.85,-4.81,0,*71
1496102706.82,3143,21.38,74152.3,3.93,-10.85,-4.81,0,*70
1496102708.06,3144,21.38,74154.0,3.93,-10.71,-4.69,0,*7A
1496102709.27,3145,21.44,74156.8,3.95,-10.49,-4.49,0,*74
1496102710.47,3146,21.44,74154.0,3.93,-10.41,-4.41,0,*71
1496102711.68,3147,21.38,74148.0,3.93,-10.41,-4.41,0,*70
1496102712.87,3148,21.38,74152.3,3.93,-10.31,-4.33,0,*7D
1496102714.05,3149,21.44,74156.5,3.93,-10.31,-4.29,0,*77
1496102715.22,3150,21.38,74152.0,3.93,-9.89,-3.87,0,*47
1496102716.42,3151,21.38,74148.8,3.95,-9.97,-3.87,0,*4F
1496102717.62,3152,21.38,74150.8,3.95,-9.79,-3.75,0,*41
1496102718.8,3153,21.38,74148.8,3.93,-9.71,-3.83,0,*47
1496102720.02,3154,21.38,74148.3,3.95,-9.83,-3.83,0,*4B
1496102721.24,3155,21.38,74148.3,3.93,-9.45,-3.43,0,*4A
1496102722.47,3156,21.38,74148.5,3.95,-9.31,-3.47,0,*48
1496102723.68,3157,21.38,74146.3,3.97,-9.31,-3.35,0,*4E
1496102724.93,3158,21.38,74148.8,3.97,-9.45,-3.47,0,*47
1496102726.16,3159,21.38,74150.3,3.97,-9.57,-3.75,0,*44
1496102727.39,3160,21.38,74148.8,3.97,-9.71,-3.71,0,*4E
1496102728.65,3161,21.38,74150.8,3.97,-9.45,-3.51,0,*4A
1496102729.9,3162,21.38,74148.5,3.97,-9.15,-3.27,0,*4D
1496102731.1,3163,21.38,74146.3,3.99,-8.85,-2.95,0,*42
1496102732.31,3164,21.38,74146.0,3.99,-8.45,-2.55,0,*45
1496102733.5,3165,21.38,74144.3,3.99,-8.55,-2.83,0,*4E
1496102734.7,3166,21.38,74146.0,3.99,-8.71,-3.03,0,*42
1496102735.88,3167,21.38,74146.8,4.03,-8.55,-2.87,0,*4C
1496102737.11,3168,21.38,74146.8,4.01,-8.81,-3.11,0,*46
1496102738.33,3169,21.38,74146.5,4.01,-8.59,-2.95,0,*4F
1496102739.53,3170,21.38,74148.3,4.03,-8.29,-2.67,0,*4F
1496102740.77,3171,21.38,74148.0,4.03,-8.03,-2.51,0,*43
1496102741.97,3172,21.38,74148.5,4.03,-7.99,-2.43,0,*4F
1496102743.21,3173,21.38,74150.8,4.03,-7.73,-2.11,0,*4D
1496102744.43,3174,21.38,74138.5,4.03,-7.73,-2.31,0,*48
1496102745.61,3175,21.38,74132.3,4.07,-8.37,-2.83,0,*4B
1496102746.82,3176,21.44,74146.3,4.05,-8.37,-2.87,0,*4E
1496102748.04,3177,21.38,74140.3,4.05,-8.37,-2.95,0,*4C
1496102749.23,3178,21.38,74146.5,4.07,-8.45,-3.11,0,*49
1496102750.46,3179,21.38,74144.0,4.05,-8.51,-3.11,0,*4F
1496102751.65,3180,21.38,74144.3,4.07,-8.37,-3.11,0,*4B
1496102752.86,3181,21.38,74150.8,4.05,-8.45,-3.03,0,*4E
1496102754.07,3182,21.38,74144.5,4.05,-8.25,-3.11,0,*48
1496102755.26,3183,21.38,74146.0,4.07,-8.25,-3.03,0,*48
1496102756.44,3184,21.38,74142.0,4.07,-8.21,-2.99,0,*49
1496102757.63,3185,21.38,74140.8,4.07,-8.21,-2.95,0,*44
1496102758.84,3186,21.38,74144.3,4.05,-8.21,-2.95,0,*45
1496102760.06,3187,21.38,74148.5,4.07,-8.11,-2.99,0,*49
1496102761.27,3188,21.38,74148.3,4.07,-8.07,-2.95,0,*4D
1496102762.49,3189,21.38,74148.3,4.07,-7.95,-2.99,0,*44
1496102763.72,3190,21.38,74150.5,4.05,-7.77,-2.83,0,*49
1496102764.95,3191,21.38,74148.0,4.09,-7.77,-2.83,0,*44
1496102766.16,3192,21.38,74152.5,4.09,-7.87,-2.91,0,*4B
1496102767.37,3193,21.38,74148.8,4.07,-7.91,-3.03,0,*49
1496102768.57,3194,21.38,74154.3,4.07,-7.91,-3.03,0,*4E
1496102769.8,3195,21.38,74150.8,4.05,-7.91,-3.11,0,*4E
1496102771.01,3196,21.38,74148.5,4.07,-7.77,-3.03,0,*44
1496102772.25,3197,21.38,74154.8,4.05,-7.77,-2.99,0,*45
1496102773.49,3198,21.38,74152.5,4.05,-7.77,-3.03,0,*48
1496102774.69,3199,21.38,74154.3,4.07,-7.69,-3.03,0,*44
1496102775.91,3200,21.38,74154.5,4.07,-7.65,-2.95,0,*45
1496102777.14,3201,21.38,74150.3,4.07,-7.31,-2.75,0,*4B
1496102778.39,3202,21.38,74152.5,4.05,-7.19,-2.75,0,*40
1496102779.62,3203,21.38,74150.3,4.07,-7.01,-2.59,0,*44
1496102780.86,3204,21.38,74152.8,4.07,-6.97,-2.51,0,*45
1496102782.08,3205,21.38,74152.3,4.07,-6.89,-2.51,0,*4B
1496102783.34,3206,21.38,74144.3,4.09,-6.93,-2.59,0,*45
1496102784.58,3207,21.38,74144.8,4.11,-6.97,-2.71,0,*43
1496102785.79,3208,21.38,74140.5,4.11,-7.05,-2.95,0,*4C
1496102787.01,3209,21.38,74140.3,4.09,-7.11,-3.07,0,*4B
1496102788.22,3210,21.38,74142.8,4.09,-7.15,-3.07,0,*47
1496102789.4,3211,21.38,74148.8,4.11,-7.15,-3.07,0,*4F
1496102790.63,3212,21.38,74150.3,4.09,-7.27,-3.19,0,*4B
1496102791.84,3213,21.38,74148.5,4.11,-7.05,-3.11,0,*4B
1496102793.07,3214,21.38,74146.8,4.09,-7.05,-3.11,0,*45
1496102794.29,3215,21.38,74150.0,4.11,-6.97,-2.99,0,*46
1496102795.52,3216,21.38,74146.0,4.09,-6.93,-2.91,0,*40
1496102796.71,3217,21.38,74148.5,4.11,-6.85,-2.99,0,*47
1496102797.89,3218,21.38,74148.0,4.11,-6.81,-2.91,0,*44
1496102799.1,3219,21.38,74150.3,4.09,-6.73,-2.95,0,*45
1496102800.29,3220,21.38,74150.5,4.11,-6.73,-3.07,0,*4C
1496102801.48,3221,21.38,74148.5,4.11,-6.55,-2.95,0,*43
1496102802.66,3222,21.38,74146.8,4.11,-6.59,-3.07,0,*46
1496102803.89,3223,21.38,74146.5,4.13,-6.63,-3.07,0,*4C
1496102805.06,3224,21.38,74144.8,4.11,-6.69,-3.19,0,*4C
1496102806.24,3225,21.38,74142.0,4.11,-6.69,-3.19,0,*4D
1496102807.45,3226,21.38,74144.3,4.09,-6.59,-3.19,0,*44
1496102808.62,3227,21.38,74142.3,4.11,-6.59,-3.23,0,*45
1496102809.8,3228,21.38,74152.3,4.11,-6.59,-3.23,0,*4A
1496102811.01,3229,21.38,74152.5,4.13,-6.55,-3.27,0,*41
1496102812.19,3230,21.38,74152.3,4.11,-6.55,-3.31,0,*4C
1496102813.38,3231,21.38,74158.8,4.11,-6.35,-3.23,0,*48
1496102814.56,3232,21.38,74152.3,4.11,-6.35,-3.19,0,*42
1496102815.74,3233,21.38,74148.3,4.11,-6.31,-3.19,0,*47
1496102816.97,3234,21.38,74146.3,4.13,-6.19,-3.15,0,*44
1496102818.2,3235,21.38,74146.3,4.13,-6.19,-3.15,0,*45
1496102819.41,3236,21.38,74150.5,4.13,-6.09,-3.15,0,*47
1496102820.62,3237,21.38,74150.3,4.13,-6.09,-3.15,0,*46
1496102821.82,3238,21.38,74148.0,4.13,-6.09,-3.19,0,*45
1496102823.03,3239,21.38,74148.0,4.13,-6.01,-3.19,0,*4C
1496102824.24,3240,21.38,74150.8,4.13,-6.09,-3.27,0,*47
1496102825.45,3241,21.38,74148.8,4.13,-6.09,-3.39,0,*49
1496102826.66,3242,21.38,74154.0,4.13,-6.09,-3.31,0,*42
1496102827.86,3243,21.38,74154.3,4.13,-6.01,-3.31,0,*4B
1496102829.1,3244,21.38,74148.3,4.17,-5.93,-3.35,0,*44
1496102830.33,3245,21.38,74148.5,4.13,-5.97,-3.51,0,*47
1496102831.56,3246,21.38,74152.5,4.13,-5.97,-3.43,0,*47
1496102832.79,3247,21.38,74154.3,4.11,-5.93,-3.55,0,*47
1496102834.04,3248,21.38,74150.5,4.13,-5.77,-3.43,0,*47
1496102835.3,3249,21.38,74148.8,4.13,-5.85,-3.43,0,*4B
1496102836.55,3250,21.38,74148.5,4.13,-5.77,-3.55,0,*49
1496102837.8,3251,21.38,74154.0,4.17,-5.73,-3.55,0,*48
1496102839.06,3252,21.38,74158.0,4.17,-5.69,-3.51,0,*44
1496102840.29,3253,21.38,74154.5,4.17,-5.55,-3.47,0,*4D
1496102841.53,3254,21.38,74150.5,4.17,-5.55,-3.59,0,*45
1496102842.78,3255,21.38,74148.8,4.13,-5.61,-3.67,0,*4A
1496102844.02,3256,21.38,74148.5,4.13,-5.61,-3.71,0,*4E
1496102845.27,3257,21.38,74148.0,4.13,-5.61,-3.71,0,*4F
1496102846.5,3258,21.38,74150.5,4.17,-5.47,-3.67,0,*47
1496102847.73,3259,21.38,74150.3,4.13,-5.47,-3.71,0,*45
1496102848.94,3260,21.38,74150.3,4.13,-5.51,-3.83,0,*45
1496102850.15,3261,21.38,74154.3,4.17,-5.47,-3.79,0,*42
1496102851.35,3262,21.38,74152.3,4.13,-5.39,-3.83,0,*49
1496102852.56,3263,21.38,74154.5,4.13,-5.35,-3.83,0,*44
1496102853.76,3264,21.38,74150.8,4.13,-5.35,-3.83,0,*43
1496102854.97,3265,21.38,74154.3,4.17,-5.35,-3.79,0,*43
1496102856.18,3266,21.38,74148.8,4.13,-5.35,-3.95,0,*46
1496102857.41,3267,21.38,74152.5,4.17,-5.31,-3.87,0,*44
1496102858.65,3268,21.38,74148.0,4.13,-5.31,-3.95,0,*4C
1496102859.88,3269,21.38,74154.3,4.17,-5.27,-3.87,0,*4D
1496102861.11,3270,21.38,74154.5,4.13,-5.19,-3.95,0,*4F
1496102862.34,3271,21.38,74150.0,4.13,-5.19,-3.95,0,*4E
1496102863.58,3272,21.38,74154.3,4.13,-5.07,-3.91,0,*46
1496102864.81,3273,21.38,74148.5,4.13,-5.11,-4.05,0,*4A
1496102866.01,3274,21.38,74150.0,4.13,-4.99,-3.91,0,*46
1496102867.21,3275,21.38,74152.5,4.13,-4.99,-3.95,0,*43
1496102868.45,3276,21.38,74152.0,4.17,-5.03,-4.05,0,*48
1496102869.69,3277,21.38,74152.3,4.17,-5.03,-4.05,0,*49
1496102870.92,3278,21.38,74152.3,4.17,-4.77,-3.91,0,*4E
1496102872.14,3279,21.38,74152.0,4.13,-4.85,-4.09,0,*40
1496102873.36,3280,21.38,74152.5,4.13,-4.93,-4.17,0,*4E
1496102874.59,3281,21.38,74154.3,4.17,-4.77,-4.13,0,*45
1496102875.82,3282,21.38,74150.5,4.17,-4.81,-4.29,0,*46
1496102877.06,3283,21.38,74148.8,4.17,-4.89,-4.37,0,*40
1496102878.28,3284,21.38,74150.5,4.13,-4.93,-4.45,0,*4D
1496102879.51,3285,21.38,74148.0,4.17,-4.89,-4.45,0,*43
1496102880.73,3286,21.38,74152.5,4.13,-4.85,-4.45,0,*48
1496102881.96,3287,21.38,74148.8,4.13,-4.73,-4.45,0,*40
1496102883.19,3288,21.38,74150.3,4.17,-4.69,-4.41,0,*44
1496102884.42,3289,21.38,74148.5,4.17,-4.77,-4.53,0,*49
1496102885.65,3290,21.38,74146.3,4.17,-4.77,-4.65,0,*44
1496102886.86,3291,21.38,74148.3,4.17,-4.65,-4.57,0,*47
1496102888.07,3292,21.38,74146.0,4.17,-4.65,-4.57,0,*44
1496102889.31,3293,21.38,74146.5,4.17,-4.69,-4.65,0,*48
1496102890.56,3294,21.38,74146.5,4.17,-4.69,-4.69,0,*43
1496102891.8,3295,21.38,74148.3,4.17,-4.65,-4.69,0,*4E
1496102893.03,3296,21.38,74154.5,4.17,-4.65,-4.69,0,*4D
1496102894.27,3297,21.38,74152.3,4.17,-4.57,-4.69,0,*4D
1496102895.48,3298,21.38,74146.3,4.17,-4.45,-4.65,0,*4D
1496102896.71,3299,21.38,74154.3,4.17,-4.53,-4.77,0,*48
1496102897.94,3300,21.38,74154.3,4.17,-4.45,-4.69,0,*41
1496102899.17,3301,21.38,74152.5,4.17,-4.45,-4.77,0,*4F
1496102900.39,3302,21.38,74154.5,4.17,-4.25,-4.65,0,*49
1496102901.6,3303,21.38,74152.0,4.17,-4.29,-4.65,0,*44
1496102902.84,3304,21.38,74148.3,4.17,-4.25,-4.77,0,*4C
1496102904.05,3305,21.38,74146.3,4.19,-4.41,-4.89,0,*40
1496102905.28,3306,21.38,74146.8,4.17,-4.37,-4.93,0,*47
1496102906.48,3307,21.38,74146.0,4.19,-4.37,-4.93,0,*48
1496102907.69,3308,21.38,74148.5,4.19,-4.29,-4.89,0,*43
1496102908.9,3309,21.38,74150.3,4.19,-4.25,-4.93,0,*45
1496102910.11,3310,21.38,74146.0,4.19,-4.29,-4.93,0,*41
1496102911.32,3311,21.38,74146.5,4.21,-4.21,-4.99,0,*49
1496102912.53,3312,21.38,74150.0,4.19,-4.17,-5.03,0,*46
1496102913.75,3313,21.38,74144.3,4.19,-4.25,-5.07,0,*42